Tanana, AK

1:41 AM AKDT on March 27, 2017 (GMT -0800)
Calhoun Memorial

Weather History for PATA - December, 2012

Change the Weather History Date:

Saturday, December 22, 2012

  Actual Average Record
Temperature  
Mean Temperature -17 °F -  
Max Temperature -14 °F 0 °F 29 °F (1970)
Min Temperature -20 °F -15 °F -52 °F (1956)
Degree Days  
Heating Degree Days 82    
Moisture  
Dew Point -24 °F    
Average Humidity 66    
Maximum Humidity 71    
Minimum Humidity 64    
Precipitation  
Precipitation 0.00 in - - ()
Snow  
Snow 0.00 in - - ()
Snow Depth 10.00 in    
Sea Level Pressure  
Sea Level Pressure 30.32 in    
Wind  
Wind Speed 8 mph (East)    
Max Wind Speed 20 mph    
Max Gust Speed 24 mph    
Visibility 10 miles    
Events      
Averages and records for this station are not official NWS values.
T = Trace of Precipitation, MM = Missing Value Source: NWS Daily Summary

Daily Weather History Graph

Daily Weather History Graph

Search for Another Location

Airport or City:

Trip Planner

Search our weather history database for the weather conditions in past years. The results will help you decide how hot, cold, wet, or windy it might be!

Date:

Astronomy

Dec. 22, 2012 Rise Set
Actual Time 11:23 AM AKST 2:51 PM AKST
Civil Twilight 9:54 AM AKST 4:20 PM AKST
Nautical Twilight 8:40 AM AKST 5:34 PM AKST
Astronomical Twilight 7:38 AM AKST 6:36 PM AKST
Moon 12:46 PM AKST (12/22) 4:40 AM AKST (12/22)
Length of Visible Light 6h 26m
Length of Day
3h 28m
Waxing Gibbous, 75% of the Moon is Illuminated
Dec 22
Waxing Gibbous
Dec 28
Full
Jan 4
Last Quarter
Jan 11
New
Jan 18
First Quarter

Hourly Weather History & Observations

Time (AKST) Temp. Windchill Dew Point Humidity Pressure Visibility Wind Dir Wind Speed Gust Speed Precip Events Conditions
12:52 AM -18.0 °F - -26.0 °F 67% 30.49 in 10.0 mi Calm Calm - N/A   Clear
1:52 AM -18.0 °F -34.7 °F -27.0 °F 64% 30.47 in 10.0 mi East 6.9 mph - N/A   Clear
2:52 AM -18.9 °F -40.8 °F -27.0 °F 66% 30.46 in 10.0 mi ENE 11.5 mph 17.3 mph N/A   Clear
3:52 AM -18.9 °F -40.8 °F -27.0 °F 66% 30.44 in 10.0 mi ENE 11.5 mph 17.3 mph N/A   Clear
4:52 AM -18.9 °F -29.5 °F -26.0 °F 70% 30.43 in 10.0 mi Variable 3.5 mph - N/A   Clear
5:52 AM -20.0 °F - -27.0 °F 70% 30.41 in 10.0 mi Calm Calm - N/A   Clear
6:52 AM -15.0 °F -37.7 °F -24.0 °F 64% 30.39 in 10.0 mi ENE 13.8 mph - N/A   Clear
7:52 AM -15.0 °F -39.3 °F -24.0 °F 64% 30.38 in 10.0 mi ENE 16.1 mph 21.9 mph N/A   Clear
8:52 AM -16.1 °F -42.8 °F -25.1 °F 64% 30.37 in 10.0 mi East 19.6 mph - N/A   Clear
9:52 AM -15.0 °F -38.5 °F -24.0 °F 64% 30.36 in 10.0 mi ESE 15.0 mph - N/A   Clear
10:52 AM -15.0 °F -34.8 °F -24.0 °F 64% 30.35 in 10.0 mi East 10.4 mph - N/A   Clear
11:39 AM -14.8 °F -39.1 °F -23.8 °F 64% 30.30 in 10.0 mi East 16.1 mph 24.2 mph N/A   Clear
11:52 AM -14.1 °F -38.9 °F -23.1 °F 64% 30.34 in 10.0 mi East 17.3 mph 24.2 mph N/A   Clear
12:52 PM -14.1 °F -33.7 °F -23.1 °F 64% 30.32 in 10.0 mi NE 10.4 mph 18.4 mph N/A   Clear
1:52 PM -14.1 °F -26.3 °F -23.1 °F 64% 30.30 in 10.0 mi North 4.6 mph - N/A   Clear
2:52 PM -16.1 °F - -24.0 °F 67% 30.29 in 10.0 mi Calm Calm - N/A   Clear
3:52 PM -15.0 °F -34.8 °F -23.1 °F 67% 30.26 in 10.0 mi East 10.4 mph 17.3 mph N/A   Clear
4:52 PM -16.1 °F -30.6 °F -23.1 °F 71% 30.25 in 10.0 mi East 5.8 mph - N/A   Clear
5:52 PM -16.1 °F -33.7 °F -24.0 °F 67% 30.24 in 10.0 mi ESE 8.1 mph - N/A   Clear
6:52 PM -16.1 °F -28.6 °F -24.0 °F 67% 30.23 in 10.0 mi Variable 4.6 mph - N/A   Clear
7:52 PM -16.1 °F -28.6 °F -25.1 °F 64% 30.22 in 10.0 mi East 4.6 mph - N/A   Clear
8:52 PM -15.0 °F -31.0 °F -23.1 °F 67% 30.20 in 10.0 mi Variable 6.9 mph 20.7 mph N/A   Clear
9:52 PM -15.0 °F -25.0 °F -23.1 °F 67% 30.21 in 10.0 mi West 3.5 mph - N/A   Clear
10:52 PM -15.0 °F -31.0 °F -23.1 °F 67% 30.19 in 10.0 mi Variable 6.9 mph - N/A   Clear
11:52 PM -15.0 °F -29.3 °F -23.1 °F 67% 30.19 in 10.0 mi Variable 5.8 mph - N/A   Clear